Location: Newark
(36.0797°N, 3.9744°E)
Time: 06:55:32
(UTC+00:00)

Tiros 1 - Pass Details

Date: 17 December 2019
Orbit: 630 x 664 km, 48.4° (Epoch: 28 January)

Event Time Altitude Azimuth Distance (km) Brightness Sun altitude
Exits shadow 05:23:57 19° 333° (NNW) 1,550 8.7 -16.6°
Maximum altitude 05:24:55 20° 350° (N) 1,499 8.8 -16.4°
Drops below altitude 10° 05:28:22 10° 37° (NE) 2,037 9.9 -15.7°
Sets 05:31:15 0° 55° (NE) 2,940 11.1 -15.2°
